EmpireAvenue Top Newcomer Buy Recommendations-20-Sep-2012

Currently I am Commission free for the Next 36 hours so buy my shares now (this is the best time to buy my shares 

With compliments from (e)REZAAHMED

If you Still waiting to join this social rocket fuel click here
You want more mature players? Then go the  Mature Player Buy Recommendations
Score 7 Day Avg.
Dividend
Yield
2 Day
ROI
Link/Ticker EAv
weekly
activities
Price 2 Day
Change
Avg.
Dividends
Joined
days ago
Updated
min ago
Buy?
1. 4.267 0.99 404.67 KINETIC8 0 49.49 39.49 0.49 1 0
2. 1.320 0.84 19.98 CAROLEANN1 0 62.92 9.59 0.53 4 0
3. 1.167 0.79 32.22 ENDERPLANETS 0 18.92 4.38 0.15 2 299
4. 1.806 0.75 90.92 DIMITRIOS 0 43.84 20.53 0.33 2 357

 

EmpireAvenue Newcomer since last dividend payout

Price increase/sqrt(minutes on EAv) Price Link/Ticker Joined Updated min ago Buy?
0.640 29.500 DALTONROAD 2012-09-19 13:54:09 0
0.738 29.210 TOMALLRED 2012-09-19 18:03:11 0
0.693 29.050 TREYSAT 2012-09-19 16:45:41 0
0.607 26.909 KRISTINWARD 2012-09-19 16:25:40 0
0.506 25.560 JDNXY 2012-09-19 13:36:52 0
0.534 25.214 SKILLFULL 2012-09-19 15:48:14 0
0.489 25.081 STEPHAMAS 2012-09-19 13:31:20 0
0.526 24.918 GEOFFCAMPBEL 2012-09-19 15:57:04 0
0.495 23.867 HRHABITS 2012-09-19 16:15:37 0
0.620 23.525 JEFFERSON 2012-09-19 21:24:52 0
0.457 23.446 KASHLEY 2012-09-19 14:56:03 0
0.432 22.220 GWOPOFFICIAL 2012-09-19 16:02:42 0
0.401 22.104 BLINKHIRE 2012-09-19 14:10:56 0
0.465 22.069 GODINEZ 2012-09-19 18:07:17 0
0.406 21.630 ASTROMUSIC 2012-09-19 15:38:52 0
0.345 20.460 NANAWILLS 2012-09-19 14:02:40 0
0.422 20.428 TOMIDEM 2012-09-19 19:09:07 0
0.348 19.970 GAAARG33 2012-09-19 15:38:14 0
0.353 19.515 LIKEBOSS 2012-09-19 17:13:38 0
0.475 19.445 MARKBERN44 2012-09-19 22:46:18 0
0.345 19.294 MUSSUM 2012-09-19 17:16:54 0
0.492 19.057 BYRONLEVENE 2012-09-19 23:42:50 0
0.447 18.472 GENROS 2012-09-19 23:22:14 0
0.441 18.033 THAISMVB 2012-09-19 23:48:30 0
0.489 17.993 TLANEJENKINS 2012-09-20 00:54:15 0
0.444 17.862 DANIJELACUK 2012-09-20 00:07:23 0
0.362 17.776 CALEBCURRY 2012-09-19 21:39:45 0
0.281 17.587 COLOMBIA 2012-09-19 17:14:08 0
0.365 17.555 INVESTINME 2012-09-19 22:11:34 0
0.569 16.279 LABELLA 2012-09-20 03:19:23 0
0.456 16.267 ALLYEEE 2012-09-20 02:12:19 0
0.295 16.173 BIGDUDE 2012-09-19 22:02:49 0
0.415 16.084 AR0 2012-09-20 01:46:11 0
0.419 15.840 PAOLA87 2012-09-20 02:06:21 0
0.280 15.312 EMBEAULIEU 2012-09-19 23:20:29 0
0.324 15.109 JSHTIMELLC 2012-09-20 01:12:19 0
0.188 14.954 YGORELIAS 2012-09-19 17:48:29 0
0.206 14.506 JHNYC78 2012-09-19 21:23:15 0
0.369 14.390 SANDEEPKUMAR 2012-09-20 02:59:14 0
0.524 14.300 MARIEIKOHAUS 2012-09-20 04:13:42 0
0.316 13.939 SABAZAEL 2012-09-20 02:45:50 0
0.181 13.816 JKHALIFA 2012-09-19 21:55:15 0
0.383 13.520 MANANAPOKE 2012-09-20 03:56:30 0
0.404 13.461 GUYROTBERG 2012-09-20 04:07:43 0
0.168 13.373 NEUFIT 2012-09-19 22:36:23 0
0.346 13.330 CHACOSANCHO 2012-09-20 03:48:31 0
0.146 13.225 NIVEDRED 2012-09-19 21:10:20 0
0.462 13.120 BILLMORRISON 2012-09-20 04:35:32 0
0.364 12.340 SELLORYELLUK 2012-09-20 04:39:38 0
0.254 10.975 BUGSY86 2012-09-20 05:06:20 0
Advertisements